User: anonymous   Login
Location: Unspecified
(0.0000°N, 0.0000°E)
Time: 21:14:37
(UTC+00:00)
Language:

NOSS 3-1 (A) - Orbit

View from above orbital plane
View from above orbital plane
View from above satellite
View from above satellite

Ground track
Ground track

The orbit data is extracted from the following two-line orbital elements,

1 26905U 01040A   17141.90894622 0.00000010  00000-0  12149-4 0    06
2 26905  63.4130 100.7346 0369000 358.1521   1.8479 13.40749778    04
Epoch (UTC): 21 May 2017 21:48:52
Eccentricity: 0.0369000
inclination: 63.4130°
perigee height: 830 km
apogee height: 1382 km
right ascension of ascending node: 100.7346°
argument of perigee: 358.1521°
revolutions per day: 13.40749778
mean anomaly at epoch: 1.8479°
orbit number at epoch: 0

The dashed part of the orbit path shows where the satellite is in the earth's shadow,  

DLR